Flag for Germany Weather past 2 weeks in Munich, Bavaria, Germany

Now
48 °F

Fog.


Feels Like: 48 °F
Forecast: 50 / 72 °F
Wind: 2 mph from North

Location: Munich / Franz Josef Strauss Airport

Current Time: Jul 30, 2015 at 6:46:25 AM

Latest Report: Jul 30, 2015 at 5:50 AM


Visibility: N/A

Pressure: 30.01 "Hg (28.16 "Hg at 526m altitude)

Humidity: 94%

Dew point: 46 °F

Location of MunichLocation

Historic Weather in Munich — Graph

°F

Munich temperature yesterday

Maximum temperature yesterday: 68 °F (at 11:50 AM)
Minimum temperature yesterday: 52 °F (at 11:50 PM)
Average temperature yesterday: 60 °F

Past Weeks' High & Low Weather Summary

 TemperatureHumidityPressure
High93 °F (Jul 17, 3:20 PM)100% (Jul 16, 5:20 AM)30.18 "Hg (Jul 16, 5:20 AM)
Low46 °F (Jul 30, 4:50 AM)23% (Jul 17, 2:50 PM)29.74 "Hg (Jul 24, 10:50 PM)
Average71 °F64%29.98 "Hg
* Reported Jul 15 5:20 AM — Jul 30 5:20 AM, Munich, Weather by CustomWeather, © 2015

Note: Actual official high and low records may vary slightly from our data, if they occured in-between our weather recording intervals... More about our weather records

Advertising

Munich weather history for previous 24 hours

 ConditionsComfort  
Time TempWeatherWind HumidityBarometerVisibility
5:20 AM
Thu, Jul 30
50 °FClear.1 mph94%30.01 "Hg10 mi
4:50 AM46 °FClear.2 mph93%30.01 "Hg10 mi
4:20 AM48 °FClear.5 mph94%30.01 "Hg10 mi
3:50 AM48 °FClear.6 mph94%30.01 "Hg10 mi
3:20 AM48 °FClear.6 mph94%30.01 "Hg10 mi
2:50 AM50 °FClear.8 mph94%30.01 "Hg10 mi
2:20 AM50 °FClear.7 mph94%30.01 "Hg10 mi
1:50 AM50 °FClear.7 mph94%30.01 "Hg10 mi
1:20 AM52 °FClear.8 mph88%30.01 "Hg10 mi
12:50 AM50 °FClear.8 mph94%30.01 "Hg10 mi
12:20 AM52 °FClear.8 mph88%30.01 "Hg10 mi
11:50 PM
Wed, Jul 29
52 °FClear.7 mph82%30.01 "Hg10 mi
11:20 PM55 °FPassing clouds.8 mph77%29.98 "HgN/A
10:50 PM57 °FPassing clouds.8 mph72%29.98 "HgN/A
10:20 PM57 °FClear.9 mph77%29.98 "Hg10 mi
9:50 PM59 °FScattered clouds.8 mph77%29.95 "HgN/A
9:20 PM59 °FScattered clouds.7 mph77%29.92 "HgN/A
8:50 PM59 °FPartly sunny.7 mph77%29.92 "HgN/A
8:20 PM61 °FSprinkles. Partly sunny.8 mph77%29.92 "HgN/A
7:50 PM61 °FPartly sunny.9 mph77%29.89 "HgN/A
7:20 PM61 °FBroken clouds.9 mph83%29.89 "HgN/A
6:50 PM61 °FBroken clouds.14 mph83%29.89 "HgN/A
6:20 PM63 °FScattered showers. Broken clouds.14 mph83%29.86 "HgN/A
5:50 PM68 °FScattered showers. Broken clouds.15 mph64%29.86 "HgN/A
5:20 PM68 °FScattered clouds.14 mph69%29.83 "HgN/A
4:50 PM68 °FBroken clouds.14 mph64%29.83 "HgN/A
4:20 PM68 °FScattered clouds.14 mph69%29.83 "HgN/A
3:50 PM66 °FBroken clouds.17 mph73%29.86 "HgN/A
3:20 PM64 °FBroken clouds.14 mph78%29.83 "HgN/A
2:50 PM64 °FSprinkles. Broken clouds.15 mph83%29.86 "HgN/A
2:20 PM66 °FLight rain. Broken clouds.14 mph73%29.83 "HgN/A
1:50 PM66 °FLight rain. Broken clouds.12 mph68%29.83 "HgN/A
1:20 PM66 °FSprinkles. Broken clouds.10 mph73%29.83 "HgN/A
12:50 PM68 °FScattered showers. Broken clouds.8 mph56%29.83 "HgN/A
12:20 PM68 °FBroken clouds.7 mph56%29.83 "HgN/A
11:50 AM68 °FScattered clouds.7 mph56%29.83 "HgN/A
11:20 AM66 °FScattered clouds.6 mph64%29.83 "HgN/A
10:50 AM64 °FPartly sunny.7 mph64%29.86 "HgN/A
10:20 AM64 °FScattered clouds.6 mph64%29.86 "HgN/A
9:50 AM63 °FScattered clouds.8 mph73%29.89 "HgN/A
9:20 AM63 °FScattered clouds.8 mph73%29.89 "HgN/A
8:50 AM59 °FScattered clouds.7 mph82%29.89 "HgN/A
8:20 AM59 °FBroken clouds.7 mph82%29.92 "HgN/A
7:50 AM55 °FPartly sunny.7 mph94%29.92 "HgN/A
7:20 AM55 °FPartly sunny.5 mph94%29.92 "HgN/A
6:50 AM55 °FPartly sunny.5 mph88%29.92 "HgN/A
6:20 AM54 °FClear.5 mph94%29.92 "Hg10 mi
Weather by CustomWeather, © 2015

See weather overviewHow to use our weather pages